This demonstration page uses our WeatherBlox Daily Observations layout. Learn more.

38.89511, -77.03637

Hourly Observations for June 11, 2020

Temp ( °F °C ) Dew Point ( °F °C ) Humidity (%) Winds ( mph kmh ) Pressure ( in mb ) Visibility ( mi km ) Precip ( " mm )
12:05 am 00:05 Cloudy with Rain 79 26.1 75 23.9 88 88 S 15 24 29.94 1014 4 6.43736 0.04 1.016
12:37 am 00:37 Mostly Cloudy with Light Rain 78 25.6 75 23.9 90 90 S 17 28 29.93 1013 10 16.0934 0.13 3.302
12:52 am 00:52 Cloudy with Light Rain 78 25.6 74 23.3 87 87 S 17 28 29.93 1013 10 16.0934 0.13 3.302
1:39 am 01:39 Cloudy 78 25.6 74 23.3 87 87 S 14 22 29.94 1014 10 16.0934 0.001 0.001
1:52 am 01:52 Mostly Cloudy with Light Rain 78 25.6 74 23.3 87 87 S 15 24 29.94 1014 10 16.0934 0.001 0.001
2:08 am 02:08 Cloudy with Light Rain 77 25 74 23.3 90 90 S 16 26 29.94 1014 10 16.0934 0.01 0.254
2:18 am 02:18 Mostly Cloudy with Light Rain 77 25 74 23.3 90 90 S 14 22 29.94 1014 10 16.0934 0.02 0.508
2:52 am 02:52 Cloudy 77 25 73 22.8 88 88 S 17 28 29.92 1013 10 16.0934 0.02 0.508
3:00 am 03:00 Cloudy 77 25 73 22.8 88 88 S 18 30 29.92 1013 10 16.0934 0 0
3:15 am 03:15 Mostly Cloudy 77 25 73 22.8 88 88 S 18 30 29.92 1013 10 16.0934 0 0
3:52 am 03:52 Cloudy 77 25 73 22.8 88 88 S 14 22 29.92 1013 10 16.0934 0 0
4:18 am 04:18 Cloudy 77 25 73 22.8 88 88 S 14 22 29.93 1013 10 16.0934 0 0
4:52 am 04:52 Cloudy 77 25 73 22.8 88 88 S 14 22 29.93 1014 10 16.0934 0 0
5:52 am 05:52 Cloudy 77 25 73 22.8 88 88 S 10 17 29.94 1014 10 16.0934 0 0
6:52 am 06:52 Mostly Cloudy 78 25.6 73 22.8 85 85 S 14 22 29.96 1015 10 16.0934 0 0
7:52 am 07:52 Cloudy 78 25.6 73 22.8 85 85 S 14 22 29.98 1015 10 16.0934 0 0
8:52 am 08:52 Mostly Cloudy 79 26.1 74 23.3 85 85 S 13 20 29.98 1015 10 16.0934 0 0
9:52 am 09:52 Cloudy 80 26.7 74 23.3 82 82 S 8 13 29.99 1016 10 16.0934 0 0
10:14 am 10:14 Cloudy with Light Rain 80 26.7 74 23.3 82 82 SSW 13 20 29.99 1015 6 9.65604 0.001 0.001
10:19 am 10:19 Cloudy with Rain 79 26.1 75 23.9 88 88 SSW 13 20 30 1016 2.5 4.02335 0.02 0.508
10:26 am 10:26 Cloudy with Light Rain 78 25.6 75 23.9 90 90 SSW 13 20 30 1016 4 6.43736 0.03 0.762
10:36 am 10:36 Cloudy with Rain 78 25.6 75 23.9 90 90 SW 10 17 30.01 1016 2 3.21868 0.05 1.27
10:52 am 10:52 Cloudy with Heavy Rain 78 25.6 75 23.9 90 90 WSW 7 11 30.01 1016 2 3.21868 0.15 3.81
10:58 am 10:58 Cloudy with Light Rain 79 26.1 76 24.4 90 90 W 6 9 30.02 1017 6 9.65604 0.001 0.001
11:09 am 11:09 Cloudy 75 23.9 71 21.7 88 88 N 16 26 30.02 1017 10 16.0934 0.001 0.001
11:23 am 11:23 Mostly Cloudy 74 23.3 70 21.1 88 88 N 10 17 30.02 1017 10 16.0934 0.001 0.001
11:28 am 11:28 Mostly Cloudy 74 23.3 70 21.1 88 88 NNW 12 19 30.02 1017 10 16.0934 0.001 0.001
11:52 am 11:52 Mostly Cloudy 74 23.3 70 21.1 88 88 NE 7 11 30.03 1017 10 16.0934 0.001 0.001
12:05 pm 12:05 Mostly Cloudy 77 25 70 21.1 79 79 NE 7 11 30.03 1017 10 16.0934 0 0
12:52 pm 12:52 Cloudy with Light Rain 76 24.4 71 21.7 85 85 N 8 13 30.04 1017 5 8.0467 0.001 0.001
1:19 pm 13:19 Mostly Cloudy 77 25 72 22.2 85 85 ESE 6 9 30.03 1017 10 16.0934 0.06 1.524
1:52 pm 13:52 Mostly Cloudy 78 25.6 73 22.8 85 85 SSE 3 6 30.03 1017 10 16.0934 0.06 1.524
2:52 pm 14:52 Mostly Cloudy 82 27.8 73 22.8 74 74 E 5 7 30.03 1017 10 16.0934 0 0
3:27 pm 15:27 Cloudy 85 29.4 66 18.9 53 53 NNW 12 19 30.03 1017 10 16.0934 0 0
3:52 pm 15:52 Mostly Cloudy 86 30 65 18.3 49 49 NNW 14 22 30.03 1017 10 16.0934 0 0
4:52 pm 16:52 Cloudy 84 28.9 64 17.8 51 51 NNW 8 13 30.04 1017 10 16.0934 0 0
5:52 pm 17:52 Mostly Cloudy 85 29.4 62 16.7 46 46 NNW 12 19 30.03 1017 10 16.0934 0 0
6:52 pm 18:52 Mostly Cloudy 85 29.4 63 17.2 48 48 NNW 10 17 30.04 1017 10 16.0934 0 0
7:52 pm 19:52 Cloudy 83 28.3 61 16.1 48 48 N 7 11 30.05 1018 10 16.0934 0 0
8:52 pm 20:52 Cloudy 82 27.8 61 16.1 49 49 NW 7 11 30.07 1018 10 16.0934 0 0
9:52 pm 21:52 Cloudy 81 27.2 61 16.1 51 51 NW 8 13 30.09 1019 10 16.0934 0 0
10:52 pm 22:52 Cloudy 79 26.1 61 16.1 54 54 NNW 7 11 30.11 1020 10 16.0934 0 0
11:52 pm 23:52 Cloudy 79 26.1 60 15.6 52 52 NW 9 15 30.11 1020 10 16.0934 0 0

Powered by AerisWeather